sat.trackr.live / text

‹ back to catalog

STARLINK-3236

NORAD 49750 · 2021-115AC

PAYLOAD ACTIVE UNKNOWN

§ Identity

Operator
Country
US
Launch date
2021-12-02
Launch site
AFETR
Launch vehicle
Mass (kg)
RCS (m²)

Purposes: comms

External: N2YO · Heavens-Above · Gunter

§ Orbital elements

Epoch: 2026-05-25T00:52:05.354112Z

Period
95.44 min
Inclination
53.2133°
Eccentricity
0.0001209
Mean motion
15.08832107 rev/d
Perigee alt
538.9 km
Apogee alt
540.6 km
Semi-major
6,917.9 km
B*
1.0916e-5
RAAN
166.3993°
Arg perigee
78.4284°
Mean anomaly
281.6843°
Rev number
24,706

§ Raw data

STARLINK-32361 49750U 21115AC  26145.03617308 -.00000114  00000+0  10916-4 0  99982 49750  53.2133 166.3993 0001209  78.4284 281.6843 15.08832107247062

JSON: /api/v1/satellites/49750 · /tle

For live sub-satellite position, see the globe view (requires WebGL).

§ Visibility from observer

Set your observer location to see the next 7 days of passes ≥ 10°. The values pass through the URL so the page stays shareable.

No JS? Fill the form by hand. The geolocation button needs JavaScript.